NORTHEAST SUFFOLK  -  Special Weather Statement Special Weather Statement        NORTHERN NASSAU  -  Special Weather Statement Special Weather Statement        NORTHWEST SUFFOLK  -  Special Weather Statement Special Weather Statement        SOUTHEAST SUFFOLK  -  Special Weather Statement Special Weather Statement        SOUTHERN NASSAU  -  Special Weather Statement Special Weather Statement        SOUTHWEST SUFFOLK  -  Special Weather Statement Special Weather Statement      

Active alerts

Northern Nassau
  Details for Northern Nassau Special Weather Statement
Southern Nassau
  Details for Southern Nassau Special Weather Statement
Northwest Suffolk
  Details for Northwest Suffolk Special Weather Statement
Southwest Suffolk
  Details for Southwest Suffolk Special Weather Statement
Northeast Suffolk
  Details for Northeast Suffolk Special Weather Statement
Southeast Suffolk
  Details for Southeast Suffolk Special Weather Statement


WXM80 ListenWXM80 Stop

You find our weather info also at:

UK Metoffice

WeatherCloud

Weather Underground

Northeastern Weather Network

AWEKAS

Citizen Weather Observer Program (CWOP)

HAMweather, WeatherForYou, PWS Weather


Weather Underground History page Text

Daily Summary for July 12, 2017 Units:  Metric    English   Both
« Previous Day
Next Day »
Daily Weekly Monthly Yearly Custom
  High: Low: Average:
Temperature: 33.7 °C 22.4 °C 27.3 °C
Dew Point: 26.1 °C 21.7 °C 23.3 °C
Humidity: 98 % 54 % 81 %
Wind Speed: 12.6 km/h 0 km/h 2.6 km/h
Wind Gust: 24.1 km/h - -
Wind:- - WSW
Pressure: 1014.4 hPa 1011.1 hPa -
Precipitation: 0.25 mm    
Historical Graphs
 
 
Tabular Data for July 12, 2017
Time Temperature Dew Point Pressure Wind Wind Speed Wind Gust Humidity Rainfall Rate (Hourly)
00:04 23.1 °C 22.1 °C 1012.8 hPa Calm     94 % 0 mm
00:09 23.1 °C 22.1 °C 1012.8 hPa Calm     94 % 0 mm
00:14 23.1 °C 22.1 °C 1012.8 hPa Calm     94 % 0 mm
00:19 23.1 °C 22.1 °C 1012.8 hPa Calm     94 % 0 mm
00:24 23.1 °C 22.2 °C 1012.8 hPa Calm     95 % 0 mm
00:29 23.1 °C 22.2 °C 1012.8 hPa Calm     95 % 0 mm
00:34 23.1 °C 22.2 °C 1012.8 hPa Calm     95 % 0 mm
00:39 23.1 °C 22.2 °C 1012.4 hPa Calm     95 % 0 mm
00:44 23 °C 22.2 °C 1012.4 hPa SW 0.2 km/h 3.7 km/h 95 % 0 mm
00:49 23 °C 22.2 °C 1012.4 hPa Calm   1.9 km/h 95 % 0 mm
00:54 23 °C 22.2 °C 1012.4 hPa Calm     95 % 0 mm
00:59 22.9 °C 22.1 °C 1012.4 hPa Calm   1.9 km/h 95 % 0 mm
01:04 22.9 °C 22.1 °C 1012.4 hPa Calm   1.6 km/h 95 % 0 mm
01:09 22.9 °C 22.1 °C 1012.4 hPa Calm   1.9 km/h 95 % 0 mm
01:15 22.9 °C 22.1 °C 1012.4 hPa Calm     95 % 0 mm
01:20 22.9 °C 22.1 °C 1012.8 hPa Calm   1.6 km/h 95 % 0 mm
01:25 22.9 °C 22.1 °C 1012.8 hPa Calm   1.9 km/h 95 % 0 mm
01:30 22.9 °C 22.1 °C 1012.8 hPa Calm   1.9 km/h 95 % 0 mm
01:35 22.9 °C 22.1 °C 1012.8 hPa Calm     95 % 0 mm
01:40 22.9 °C 22.1 °C 1012.8 hPa Calm     95 % 0 mm
01:45 22.9 °C 22.3 °C 1012.8 hPa Calm     96 % 0 mm
01:50 22.9 °C 22.1 °C 1012.8 hPa Calm     95 % 0 mm
01:55 22.9 °C 22.3 °C 1012.8 hPa Calm     96 % 0 mm
02:00 22.9 °C 22.1 °C 1012.8 hPa Calm     95 % 0 mm
02:02 22.9 °C 22.1 °C 1012.8 hPa Calm     95 % 0 mm
02:07 22.9 °C 22.2 °C 1012.8 hPa Calm     96 % 0 mm
02:12 22.9 °C 22.2 °C 1012.8 hPa Calm     96 % 0 mm
02:17 22.9 °C 22.2 °C 1012.8 hPa Calm     96 % 0 mm
02:22 22.9 °C 22.2 °C 1012.8 hPa Calm     96 % 0 mm
02:27 22.9 °C 22.2 °C 1012.8 hPa Calm     96 % 0 mm
02:32 22.9 °C 22.2 °C 1012.8 hPa Calm   1.9 km/h 96 % 0 mm
02:37 22.9 °C 22.3 °C 1012.8 hPa Calm     96 % 0 mm
02:42 22.9 °C 22.2 °C 1013.1 hPa Calm     96 % 0 mm
02:47 22.9 °C 22.3 °C 1013.1 hPa Calm     96 % 0 mm
02:52 22.9 °C 22.3 °C 1012.8 hPa Calm     96 % 0 mm
02:57 22.9 °C 22.3 °C 1013.1 hPa Calm     96 % 0 mm
03:02 22.9 °C 22.3 °C 1013.1 hPa Calm     96 % 0 mm
03:07 22.9 °C 22.2 °C 1012.8 hPa Calm     96 % 0 mm
03:12 22.9 °C 22.3 °C 1012.8 hPa Calm     96 % 0 mm
03:17 22.9 °C 22.2 °C 1012.8 hPa Calm     96 % 0 mm
03:22 22.9 °C 22.2 °C 1012.8 hPa Calm     96 % 0 mm
03:28 22.9 °C 22.2 °C 1012.8 hPa Calm     96 % 0 mm
03:33 22.8 °C 22.2 °C 1012.8 hPa Calm     96 % 0 mm
03:38 22.8 °C 22.1 °C 1012.8 hPa Calm     96 % 0 mm
03:43 22.8 °C 22.1 °C 1012.8 hPa Calm     96 % 0 mm
03:48 22.7 °C 22.1 °C 1012.8 hPa Calm     96 % 0 mm
03:53 22.7 °C 21.8 °C 1012.8 hPa Calm     95 % 0 mm
03:58 22.6 °C 21.8 °C 1012.8 hPa Calm     95 % 0 mm
04:03 22.6 °C 21.8 °C 1012.8 hPa Calm     95 % 0 mm
04:08 22.6 °C 21.7 °C 1013.1 hPa Calm     95 % 0 mm
04:13 22.6 °C 21.7 °C 1012.8 hPa Calm     95 % 0 mm
04:18 22.6 °C 21.9 °C 1013.1 hPa Calm     96 % 0 mm
04:23 22.5 °C 21.8 °C 1013.1 hPa Calm     96 % 0 mm
04:28 22.5 °C 21.8 °C 1012.8 hPa Calm     96 % 0 mm
04:33 22.4 °C 21.8 °C 1012.8 hPa Calm     96 % 0 mm
04:38 22.4 °C 21.8 °C 1012.8 hPa Calm     96 % 0 mm
04:43 22.4 °C 21.7 °C 1012.8 hPa Calm     96 % 0 mm
04:48 22.4 °C 21.8 °C 1012.8 hPa Calm     96 % 0 mm
04:53 22.4 °C 21.8 °C 1012.8 hPa Calm     96 % 0 mm
04:58 22.4 °C 21.8 °C 1012.8 hPa Calm     96 % 0 mm
04:59 22.4 °C 21.8 °C 1012.8 hPa Calm     96 % 0 mm
05:04 22.4 °C 21.8 °C 1012.8 hPa Calm     96 % 0 mm
05:09 22.4 °C 21.8 °C 1012.8 hPa Calm     96 % 0 mm
05:14 22.4 °C 21.8 °C 1012.8 hPa Calm     96 % 0 mm
05:19 22.4 °C 21.8 °C 1012.8 hPa SW 0.8 km/h 3.7 km/h 96 % 0 mm
05:24 22.4 °C 21.8 °C 1012.8 hPa Calm     96 % 0 mm
05:29 22.5 °C 21.8 °C 1012.8 hPa Calm     96 % 0 mm
05:34 22.6 °C 21.9 °C 1012.4 hPa Calm   1.9 km/h 96 % 0 mm
05:39 22.7 °C 22.2 °C 1012.4 hPa Calm     97 % 0 mm
05:44 22.8 °C 22.3 °C 1012.4 hPa Calm     97 % 0 mm
05:49 22.9 °C 22.4 °C 1012.1 hPa Calm     97 % 0 mm
05:54 22.9 °C 22.4 °C 1012.1 hPa Calm     97 % 0 mm
05:59 22.9 °C 22.4 °C 1012.1 hPa SW 0.3 km/h 1.9 km/h 97 % 0 mm
06:04 22.9 °C 22.4 °C 1012.1 hPa Calm     97 % 0 mm
06:09 23 °C 22.5 °C 1011.7 hPa Calm   1.9 km/h 97 % 0 mm
06:15 23 °C 22.5 °C 1012.1 hPa Calm     97 % 0 mm
06:20 23.1 °C 22.6 °C 1012.1 hPa Calm   1.9 km/h 97 % 0 mm
06:25 23.1 °C 22.6 °C 1012.4 hPa SW 0.3 km/h 1.9 km/h 97 % 0 mm
06:30 23.1 °C 22.6 °C 1012.4 hPa WSW 3.5 km/h 5.6 km/h 97 % 0 mm
06:35 23.1 °C 22.6 °C 1012.4 hPa West 2.9 km/h 5.6 km/h 97 % 0 mm
06:40 23.1 °C 22.6 °C 1012.4 hPa SW 3.7 km/h 9.3 km/h 97 % 0 mm
06:45 23.2 °C 22.7 °C 1012.4 hPa WSW 2.6 km/h 9.3 km/h 97 % 0 mm
06:50 23.2 °C 22.7 °C 1012.4 hPa WSW 3.5 km/h 4.8 km/h 97 % 0 mm
06:53 23.2 °C 22.7 °C 1012.4 hPa WSW 2.3 km/h 5.6 km/h 97 % 0 mm
06:58 23.2 °C 22.7 °C 1012.8 hPa SW 2.4 km/h 5.6 km/h 97 % 0 mm
07:03 23.3 °C 22.8 °C 1012.8 hPa South 1.4 km/h 5.6 km/h 97 % 0 mm
07:08 23.4 °C 22.9 °C 1012.8 hPa WSW 5 km/h 8 km/h 97 % 0 mm
07:13 23.6 °C 23.3 °C 1012.8 hPa SSW 3.9 km/h 9.3 km/h 98 % 0 mm
07:18 23.7 °C 23.2 °C 1012.8 hPa WSW 4.7 km/h 7.4 km/h 97 % 0 mm
07:23 23.8 °C 23.3 °C 1013.1 hPa West 4.8 km/h 9.3 km/h 97 % 0 mm
07:28 23.8 °C 23.3 °C 1013.1 hPa WSW 1.9 km/h 5.6 km/h 97 % 0 mm
07:33 23.8 °C 23.3 °C 1013.1 hPa West 3.4 km/h 5.6 km/h 97 % 0 mm
07:38 23.8 °C 23.3 °C 1013.4 hPa West 0.8 km/h 3.7 km/h 97 % 0 mm
07:43 23.8 °C 23.3 °C 1013.4 hPa West 0.3 km/h 1.9 km/h 97 % 0 mm
07:48 23.8 °C 23.3 °C 1013.4 hPa West 1.3 km/h 5.6 km/h 97 % 0 mm
07:53 23.8 °C 23.3 °C 1013.4 hPa WNW 0.3 km/h 5.6 km/h 97 % 0 mm
07:56 23.8 °C 23.3 °C 1013.4 hPa WNW 0.3 km/h 1.9 km/h 97 % 0 mm
08:01 23.8 °C 23.3 °C 1013.4 hPa WNW 1 km/h 5.6 km/h 97 % 0 mm
08:06 23.8 °C 23.3 °C 1013.1 hPa WNW 0.2 km/h 1.9 km/h 97 % 0 mm
08:11 23.8 °C 23.3 °C 1013.4 hPa Calm   1.9 km/h 97 % 0 mm
08:16 23.8 °C 23.3 °C 1013.4 hPa WNW 0.3 km/h 3.7 km/h 97 % 0 mm
08:21 23.8 °C 23.3 °C 1013.4 hPa Calm   1.9 km/h 97 % 0 mm
08:26 23.9 °C 23.4 °C 1013.4 hPa WNW 1.1 km/h 3.7 km/h 97 % 0 mm
08:31 23.9 °C 23.4 °C 1013.1 hPa WNW 0.6 km/h 1.9 km/h 97 % 0 mm
08:36 23.9 °C 23.4 °C 1013.1 hPa NW 0.3 km/h 1.9 km/h 97 % 0 mm
08:41 24.1 °C 23.6 °C 1013.1 hPa NW 0.5 km/h 3.2 km/h 97 % 0 mm
08:46 24.2 °C 23.7 °C 1013.1 hPa SW 3.1 km/h 7.4 km/h 97 % 0 mm
08:51 24.2 °C 23.7 °C 1013.1 hPa SW 1.8 km/h 5.6 km/h 97 % 0 mm
08:57 24.3 °C 23.8 °C 1013.4 hPa SW 0.5 km/h 3.7 km/h 97 % 0 mm
09:02 24.3 °C 23.8 °C 1013.1 hPa WSW 0.8 km/h 5.6 km/h 97 % 0 mm
09:07 24.4 °C 23.9 °C 1013.1 hPa SW 4.8 km/h 6.4 km/h 97 % 0 mm
09:12 24.4 °C 23.9 °C 1013.4 hPa SW 5 km/h 16.1 km/h 97 % 0 mm
09:17 24.5 °C 24 °C 1013.4 hPa WSW 6.3 km/h 13 km/h 97 % 0 mm
09:22 24.6 °C 24.1 °C 1013.4 hPa WSW 5.1 km/h 11.1 km/h 97 % 0 mm
09:27 24.6 °C 24.1 °C 1013.4 hPa WSW 5.3 km/h 9.3 km/h 97 % 0 mm
09:32 24.8 °C 24.3 °C 1013.1 hPa WSW 2.4 km/h 7.4 km/h 97 % 0 mm
09:37 24.9 °C 24.2 °C 1013.4 hPa SW 5.6 km/h 9.3 km/h 96 % 0 mm
09:42 25.1 °C 24.4 °C 1013.4 hPa SSW 3.9 km/h 11.1 km/h 96 % 0 mm
09:43 25.1 °C 24.4 °C 1013.4 hPa WSW 3.5 km/h 5.6 km/h 96 % 0 mm
09:48 25.3 °C 24.7 °C 1013.4 hPa SW 12.6 km/h 13 km/h 96 % 0 mm
09:53 25.6 °C 24.3 °C 1013.4 hPa SW 2.7 km/h 7.4 km/h 93 % 0 mm
09:58 25.8 °C 24.4 °C 1013.1 hPa SW 5 km/h 14.8 km/h 92 % 0 mm
10:03 26.2 °C 24.6 °C 1013.4 hPa WSW 1.9 km/h 9.3 km/h 91 % 0 mm
10:08 26.6 °C 24.9 °C 1013.4 hPa WNW 2.9 km/h 16.7 km/h 91 % 0 mm
10:13 26.8 °C 24.7 °C 1013.1 hPa SSW 9.2 km/h 18.5 km/h 88 % 0 mm
10:18 27.1 °C 24.9 °C 1013.1 hPa WSW 5.5 km/h 5.6 km/h 88 % 0 mm
10:23 27.5 °C 25.2 °C 1013.1 hPa WNW 0.6 km/h 5.6 km/h 87 % 0 mm
10:28 27.9 °C 25.3 °C 1013.1 hPa WNW 3.2 km/h 9.3 km/h 86 % 0 mm
10:34 28.2 °C 24.8 °C 1013.1 hPa SW 7.9 km/h 18.5 km/h 82 % 0 mm
10:39 28.7 °C 25.7 °C 1013.4 hPa WNW 2.9 km/h 5.6 km/h 84 % 0 mm
10:44 29 °C 25.8 °C 1013.4 hPa NNE 1.9 km/h 5.6 km/h 83 % 0 mm
10:49 29.3 °C 25.1 °C 1013.8 hPa West 3.1 km/h 8 km/h 78 % 0 mm
10:54 29.7 °C 26.1 °C 1013.4 hPa SW 3.5 km/h 6.4 km/h 81 % 0 mm
10:59 30.1 °C 25.8 °C 1013.8 hPa WSW 4.8 km/h 9.7 km/h 78 % 0 mm
11:05 30.3 °C 25.6 °C 1013.4 hPa SW 4.5 km/h 5.6 km/h 76 % 0 mm
11:10 30.6 °C 25.4 °C 1013.4 hPa NW 8 km/h 13 km/h 74 % 0 mm
11:15 30.8 °C 24.9 °C 1013.4 hPa SW 3.4 km/h 7.4 km/h 71 % 0 mm
11:20 30.9 °C 24.8 °C 1013.4 hPa SW 4 km/h 11.3 km/h 70 % 0 mm
11:25 31.1 °C 24.5 °C 1013.4 hPa WSW 8.2 km/h 13 km/h 68 % 0 mm
11:30 31.3 °C 24.9 °C 1013.4 hPa WNW 2.7 km/h 7.4 km/h 69 % 0 mm
11:35 31.4 °C 25.6 °C 1013.4 hPa SSW 1.6 km/h 5.6 km/h 71 % 0 mm
11:40 31.7 °C 26 °C 1013.4 hPa NW 1 km/h 9.7 km/h 72 % 0 mm
11:45 31.9 °C 25.5 °C 1013.4 hPa South 5.5 km/h 9.7 km/h 69 % 0 mm
11:50 32.1 °C 25.4 °C 1013.4 hPa WNW 3.2 km/h 13 km/h 68 % 0 mm
11:55 32.3 °C 25.4 °C 1013.4 hPa WSW 6.3 km/h 11.1 km/h 67 % 0 mm
12:00 32.4 °C 25.8 °C 1013.4 hPa West 4.2 km/h 5.6 km/h 68 % 0 mm
12:05 32.6 °C 25.4 °C 1013.4 hPa WSW 4.7 km/h 9.3 km/h 66 % 0 mm
12:10 32.7 °C 24.7 °C 1013.4 hPa SW 9 km/h 18.5 km/h 63 % 0 mm
12:15 32.7 °C 24.7 °C 1013.1 hPa West 4.8 km/h 11.3 km/h 63 % 0 mm
12:21 32.7 °C 25 °C 1013.1 hPa WNW 3.2 km/h 11.3 km/h 64 % 0 mm
12:25 32.8 °C 25.1 °C 1013.1 hPa WNW 3.2 km/h 8 km/h 64 % 0 mm
12:31 32.9 °C 25.2 °C 1012.8 hPa WSW 3.2 km/h 8 km/h 64 % 0 mm
12:36 32.9 °C 24.4 °C 1012.8 hPa SW 4.8 km/h 14.5 km/h 61 % 0 mm
12:41 32.9 °C 24.9 °C 1012.8 hPa SW 3.2 km/h 9.7 km/h 63 % 0 mm
12:46 33.1 °C 25.3 °C 1012.8 hPa SW 3.2 km/h 11.3 km/h 64 % 0 mm
12:50 33.1 °C 25.4 °C 1012.8 hPa SW 1.6 km/h 11.3 km/h 64 % 0 mm
12:56 33.2 °C 24.9 °C 1012.8 hPa WSW 8 km/h 12.9 km/h 62 % 0 mm
13:01 33.2 °C 25.2 °C 1012.8 hPa WSW 3.1 km/h 7.4 km/h 63 % 0 mm
13:06 33.3 °C 25.6 °C 1012.8 hPa West 1.9 km/h 9.3 km/h 64 % 0 mm
13:11 33.3 °C 24.4 °C 1012.8 hPa SW 9.3 km/h 16.7 km/h 60 % 0 mm
13:16 33.3 °C 25.1 °C 1012.8 hPa NW 1.4 km/h 5.6 km/h 62 % 0 mm
13:21 33.4 °C 25.4 °C 1012.4 hPa SW 4.2 km/h 11.1 km/h 63 % 0 mm
13:26 33.5 °C 24.9 °C 1012.4 hPa NW 6.9 km/h 13 km/h 61 % 0 mm
13:31 33.6 °C 25.6 °C 1012.4 hPa West 5.8 km/h 9.3 km/h 63 % 0 mm
13:36 33.7 °C 24.8 °C 1012.4 hPa WNW 7.4 km/h 13 km/h 60 % 0 mm
13:41 33.7 °C 24.6 °C 1012.4 hPa West 7.1 km/h 11.1 km/h 59 % 0 mm
13:46 33.7 °C 24.6 °C 1012.1 hPa WSW 8.5 km/h 14.8 km/h 59 % 0 mm
13:51 33.7 °C 24.3 °C 1012.1 hPa SW 7.7 km/h 11.3 km/h 58 % 0 mm
13:56 33.7 °C 24.3 °C 1012.1 hPa SW 3.2 km/h 7.4 km/h 58 % 0 mm
14:01 33.6 °C 23.9 °C 1012.4 hPa WNW 7.1 km/h 16.7 km/h 57 % 0 mm
14:06 33.6 °C 24.4 °C 1012.1 hPa West 9.3 km/h 14.8 km/h 59 % 0 mm
14:11 33.3 °C 23.9 °C 1012.4 hPa SW 7.6 km/h 11.1 km/h 58 % 0 mm
14:16 33.2 °C 24.1 °C 1012.4 hPa West 6.4 km/h 9.3 km/h 59 % 0 mm
14:21 33 °C 24.2 °C 1012.1 hPa West 4.7 km/h 9.3 km/h 60 % 0 mm
14:26 33.1 °C 24.3 °C 1012.1 hPa SSW 2.6 km/h 7.4 km/h 60 % 0 mm
14:31 33 °C 24.2 °C 1012.4 hPa SW 5 km/h 9.3 km/h 60 % 0 mm
14:36 32.9 °C 24.2 °C 1012.4 hPa WNW 5.6 km/h 9.3 km/h 60 % 0 mm
14:41 32.9 °C 25.5 °C 1012.1 hPa West 6.9 km/h 16.7 km/h 65 % 0 mm
14:46 33 °C 24.7 °C 1012.1 hPa SW 2.6 km/h 5.6 km/h 62 % 0 mm
14:51 33.1 °C 24.6 °C 1012.1 hPa NW 2.1 km/h 6.4 km/h 61 % 0 mm
14:56 33.2 °C 24.7 °C 1011.7 hPa WSW 3.5 km/h 6.4 km/h 61 % 0 mm
15:01 33.3 °C 24.7 °C 1011.7 hPa WNW 0.8 km/h 5.6 km/h 61 % 0 mm
15:06 33.3 °C 24.7 °C 1011.7 hPa SSW 4.2 km/h 8 km/h 61 % 0 mm
15:11 33.3 °C 23.9 °C 1011.7 hPa SW 9.5 km/h 16.7 km/h 58 % 0 mm
15:16 33.3 °C 24.2 °C 1011.4 hPa WNW 4.8 km/h 11.1 km/h 59 % 0 mm
15:22 33.3 °C 24.2 °C 1011.4 hPa WSW 6.1 km/h 9.3 km/h 59 % 0 mm
15:27 33.3 °C 24.4 °C 1011.7 hPa WSW 3.7 km/h 8 km/h 60 % 0 mm
15:32 33.2 °C 24.1 °C 1011.4 hPa WSW 1.1 km/h 5.6 km/h 59 % 0 mm
15:37 33.1 °C 23.7 °C 1011.7 hPa SSW 8.2 km/h 16.7 km/h 58 % 0 mm
15:42 33 °C 24.2 °C 1011.7 hPa WSW 3.1 km/h 11.1 km/h 60 % 0 mm
15:47 32.9 °C 24.4 °C 1012.1 hPa WNW 3.5 km/h 7.4 km/h 61 % 0 mm
15:52 33 °C 24.2 °C 1012.1 hPa WNW 4.8 km/h 9.3 km/h 60 % 0 mm
15:57 33 °C 23.6 °C 1011.4 hPa West 5 km/h 13 km/h 58 % 0 mm
16:02 32.9 °C 24.4 °C 1011.4 hPa SW 5.1 km/h 8 km/h 61 % 0 mm
16:08 32.9 °C 24.4 °C 1011.4 hPa WSW 5 km/h 11.3 km/h 61 % 0 mm
16:13 32.9 °C 23.8 °C 1011.4 hPa SW 6.8 km/h 13 km/h 59 % 0 mm
16:18 33 °C 23.9 °C 1011.4 hPa WNW 5.5 km/h 9.3 km/h 59 % 0 mm
16:23 33.1 °C 24 °C 1011.4 hPa WNW 6.9 km/h 9.7 km/h 59 % 0 mm
16:28 33.2 °C 23.5 °C 1011.1 hPa WSW 7.4 km/h 16.7 km/h 57 % 0 mm
16:33 33.3 °C 23.9 °C 1011.1 hPa SW 5.5 km/h 14.8 km/h 58 % 0 mm
16:38 33.4 °C 23.4 °C 1011.1 hPa West 5.8 km/h 14.8 km/h 56 % 0 mm
16:43 33.4 °C 23.2 °C 1011.1 hPa NW 8 km/h 13 km/h 55 % 0 mm
16:48 33.3 °C 23.7 °C 1011.1 hPa WSW 6.9 km/h 14.8 km/h 57 % 0 mm
16:53 33.3 °C 23.6 °C 1011.1 hPa WSW 6.6 km/h 14.8 km/h 57 % 0 mm
16:58 33.2 °C 22.9 °C 1011.1 hPa WSW 4.3 km/h 8 km/h 55 % 0 mm
17:03 33.3 °C 23 °C 1011.1 hPa SW 10.3 km/h 13 km/h 55 % 0 mm
17:08 33.2 °C 22.7 °C 1011.4 hPa WSW 6.1 km/h 14.8 km/h 54 % 0 mm
17:13 33.1 °C 22.8 °C 1011.1 hPa WSW 6.6 km/h 9.3 km/h 55 % 0 mm
17:18 32.9 °C 23 °C 1011.1 hPa West 3.2 km/h 14.8 km/h 56 % 0 mm
17:23 32.8 °C 22.9 °C 1011.4 hPa WNW 6.1 km/h 11.3 km/h 56 % 0 mm
17:28 32.7 °C 23.1 °C 1011.4 hPa West 5.5 km/h 13 km/h 57 % 0 mm
17:33 32.6 °C 23 °C 1011.4 hPa WSW 6.6 km/h 11.1 km/h 57 % 0 mm
17:38 32.5 °C 22.9 °C 1011.4 hPa WSW 7.4 km/h 16.7 km/h 57 % 0 mm
17:44 32.4 °C 23.1 °C 1011.4 hPa SSW 5.5 km/h 11.1 km/h 58 % 0 mm
17:49 32.3 °C 22.7 °C 1011.4 hPa West 4.3 km/h 9.3 km/h 57 % 0 mm
17:54 32.2 °C 23.2 °C 1011.4 hPa SW 2.9 km/h 7.4 km/h 59 % 0 mm
17:59 32.1 °C 23.3 °C 1011.4 hPa SW 1.6 km/h 3.7 km/h 60 % 0 mm
18:04 31.9 °C 23.2 °C 1011.7 hPa WSW 0.5 km/h 5.6 km/h 60 % 0 mm
18:09 31.8 °C 23.1 °C 1011.4 hPa WSW 2.4 km/h 8 km/h 60 % 0 mm
18:14 31.8 °C 23.6 °C 1011.7 hPa West 4.7 km/h 7.4 km/h 62 % 0 mm
18:19 31.7 °C 23.2 °C 1011.7 hPa WNW 1.4 km/h 3.7 km/h 61 % 0 mm
18:24 31.6 °C 23.1 °C 1011.4 hPa SSW 6.4 km/h 8 km/h 61 % 0 mm
18:29 31.4 °C 23 °C 1011.7 hPa WSW 3.7 km/h 6.4 km/h 61 % 0 mm
18:34 31.3 °C 23.1 °C 1011.7 hPa West 6.4 km/h 11.1 km/h 62 % 0 mm
18:39 31.1 °C 22.9 °C 1011.4 hPa SW 4.5 km/h 9.3 km/h 62 % 0 mm
18:44 30.9 °C 22.8 °C 1011.7 hPa SW 5.8 km/h 11.3 km/h 62 % 0 mm
18:49 30.7 °C 23.1 °C 1011.7 hPa WSW 6.1 km/h 9.7 km/h 64 % 0 mm
18:54 30.6 °C 22.7 °C 1011.7 hPa SW 2.4 km/h 5.6 km/h 63 % 0 mm
18:59 30.5 °C 22.9 °C 1011.7 hPa WSW 2.6 km/h 5.6 km/h 64 % 0 mm
19:04 30.4 °C 22.8 °C 1012.1 hPa SW 5.8 km/h 24.1 km/h 64 % 0 mm
19:09 30.2 °C 22.8 °C 1012.1 hPa South 8.5 km/h 20.4 km/h 65 % 0 mm
19:14 29.9 °C 22.8 °C 1012.1 hPa SW 11.3 km/h 14.8 km/h 66 % 0 mm
19:19 29.7 °C 22.9 °C 1012.1 hPa SW 6.3 km/h 18.5 km/h 67 % 0 mm
19:25 29.4 °C 22.9 °C 1012.1 hPa West 6.8 km/h 16.7 km/h 68 % 0 mm
19:30 29.2 °C 22.7 °C 1012.4 hPa West 6 km/h 16.7 km/h 68 % 0 mm
19:35 28.9 °C 22.7 °C 1012.4 hPa WSW 7.2 km/h 16.7 km/h 69 % 0 mm
19:40 28.8 °C 22.8 °C 1012.4 hPa WSW 4.7 km/h 12.9 km/h 70 % 0 mm
19:45 28.6 °C 22.8 °C 1012.4 hPa West 4.8 km/h 9.3 km/h 71 % 0 mm
19:50 28.5 °C 22.7 °C 1012.4 hPa WSW 3.1 km/h 14.8 km/h 71 % 0 mm
19:55 28.4 °C 22.8 °C 1012.4 hPa West 4.7 km/h 9.3 km/h 72 % 0 mm
20:00 28.3 °C 22.7 °C 1012.4 hPa WNW 3.1 km/h 7.4 km/h 72 % 0 mm
20:05 28.2 °C 22.9 °C 1012.8 hPa WNW 6.1 km/h 9.3 km/h 73 % 0 mm
20:10 28.2 °C 23.1 °C 1012.4 hPa SSW 1 km/h 5.6 km/h 74 % 0 mm
20:15 28.1 °C 23 °C 1012.8 hPa SW 3.1 km/h 5.6 km/h 74 % 0 mm
20:20 28 °C 22.9 °C 1012.8 hPa SW 1.1 km/h 5.6 km/h 74 % 0 mm
20:25 27.9 °C 23.1 °C 1012.8 hPa West 0.8 km/h 1.9 km/h 75 % 0 mm
20:30 27.8 °C 23 °C 1012.8 hPa West 0.6 km/h 3.7 km/h 75 % 0 mm
20:35 27.8 °C 22.7 °C 1012.8 hPa NW 0.3 km/h 1.9 km/h 74 % 0 mm
20:40 27.7 °C 22.9 °C 1012.8 hPa Calm   1.9 km/h 75 % 0 mm
20:45 27.7 °C 22.8 °C 1012.8 hPa Calm   1.9 km/h 75 % 0 mm
20:50 27.6 °C 23 °C 1013.1 hPa North 6.3 km/h 9.3 km/h 76 % 0 mm
20:55 27.4 °C 22.8 °C 1013.1 hPa North 3.5 km/h 8 km/h 76 % 0 mm
21:00 27.3 °C 22.7 °C 1013.1 hPa NNW 1.8 km/h 4.8 km/h 76 % 0 mm
21:05 27.1 °C 22.7 °C 1013.1 hPa West 2.4 km/h 9.3 km/h 77 % 0 mm
21:10 27.1 °C 22.7 °C 1013.4 hPa West 0.3 km/h 1.9 km/h 77 % 0 mm
21:15 26.9 °C 22.6 °C 1013.4 hPa West 2.1 km/h 5.6 km/h 77 % 0 mm
21:20 26.9 °C 22.7 °C 1013.4 hPa West 0.5 km/h 3.7 km/h 78 % 0 mm
21:25 26.8 °C 22.6 °C 1013.8 hPa NNW 1.3 km/h 3.7 km/h 78 % 0 mm
21:29 26.7 °C 22.5 °C 1013.8 hPa NNW 0.3 km/h 1.9 km/h 78 % 0 mm
21:34 26.6 °C 22.4 °C 1014.1 hPa Calm     78 % 0 mm
21:39 26.5 °C 22.6 °C 1014.1 hPa Calm     79 % 0 mm
21:44 26.4 °C 22.5 °C 1014.1 hPa Calm   1.9 km/h 79 % 0 mm
21:49 26.3 °C 22.8 °C 1014.1 hPa Calm     81 % 0.25 mm
21:54 26.3 °C 22.9 °C 1014.1 hPa Calm     82 % 0.25 mm
21:59 26.2 °C 22.9 °C 1014.1 hPa Calm   1.9 km/h 82 % 0.25 mm
22:04 26.1 °C 23 °C 1014.1 hPa Calm     83 % 0.25 mm
22:09 26 °C 22.9 °C 1014.4 hPa Calm     83 % 0.25 mm
22:14 25.9 °C 23 °C 1014.1 hPa Calm     84 % 0.25 mm
22:19 25.7 °C 23 °C 1013.8 hPa Calm     85 % 0.25 mm
22:24 25.6 °C 22.9 °C 1013.8 hPa Calm   1.6 km/h 85 % 0.25 mm
22:29 25.4 °C 22.7 °C 1013.8 hPa Calm     85 % 0.25 mm
22:34 25.3 °C 22.8 °C 1013.8 hPa Calm     86 % 0.25 mm
22:39 25.2 °C 22.8 °C 1013.8 hPa Calm     87 % 0.25 mm
22:44 25.1 °C 22.8 °C 1013.8 hPa Calm     87 % 0.25 mm
22:49 25.1 °C 22.7 °C 1013.8 hPa Calm     87 % 0 mm
22:54 24.9 °C 22.8 °C 1013.8 hPa Calm     88 % 0 mm
22:59 24.8 °C 22.7 °C 1013.8 hPa Calm     88 % 0 mm
23:05 24.8 °C 22.8 °C 1013.8 hPa Calm     89 % 0 mm
23:10 24.7 °C 22.7 °C 1013.8 hPa Calm     89 % 0 mm
23:15 24.6 °C 22.8 °C 1013.8 hPa Calm     90 % 0 mm
23:20 24.5 °C 22.8 °C 1013.8 hPa Calm     90 % 0 mm
23:25 24.4 °C 22.5 °C 1013.8 hPa Calm   1.9 km/h 89 % 0 mm
23:30 24.4 °C 22.4 °C 1013.8 hPa Calm     89 % 0 mm
23:35 24.3 °C 22.6 °C 1013.8 hPa NW 0.5 km/h 1.9 km/h 90 % 0 mm
23:40 24.2 °C 22.5 °C 1013.8 hPa Calm   1.9 km/h 90 % 0 mm
23:45 24.2 °C 22.4 °C 1013.8 hPa Calm     90 % 0 mm
23:50 24.2 °C 22.4 °C 1013.8 hPa NW 0.3 km/h 1.9 km/h 90 % 0 mm
23:55 24.1 °C 22.4 °C 1013.8 hPa WSW 0.2 km/h 3.7 km/h 90 % 0 mm
Crab Meadow Weather
Compliments of Weather Underground - 3 mb

Script developed by  Jim McMurry - jmcmurry@mwt.net Adapted for the template by  Wim van der Kuil - Leuven-Template.eu

Recycling: If every American home replaced just one light bulb with an ENERGY STAR qualified bulb, we would save enough energy to light more than 3 million homes for a year, more than $600 million in annual energy costs, and prevent greenhouse gases equivalent to the emissions of more than 800,000 cars.